Location: Burland Observatory
(39.4088°N, 105.4217°W)
Time: 04:19:56
(UTC-07:00)

Explorer 7 - Pass Details

Date: 07 December 2019
Orbit: 485 x 679 km, 50.3° (Epoch: 17 January)

Event Time Altitude Azimuth Distance (km) Brightness Sun altitude
Rises 17:16:04 0° 247° (WSW) 2,990 13.3 -7.4°
Reaches altitude 10° 17:18:27 10° 251° (WSW) 2,093 11.5 -7.9°
Maximum altitude 17:23:14 56° 330° (NNW) 806 7.7 -8.7°
Enters shadow 17:27:56 11° 49° (NE) 2,068 9.2 -9.6°
